Погода в Зональном

Россия / Сахалинская область     50°39′48″N   142°45′20″E
В апреле 2022 года жителям России запретили посещать сайт meteo.paraplan.net по решению Генеральной прокуратуры. Аудитория сайта уменьшилась в 10 раз. Владельцы сайта не видят смысла в поддержке погодного сервера в таких условиях. Сайт будет закрыт в октябре.
темп.,
°C
ветер,
м/с
пор.,
м/с
влажн.,
%
обл.,
%
осадки,
мм/ч
давл.,
гПа
погр.,
м
25 сентября, вс
вс2523:00+10ююв2699100 0.6 999318
02:00+8юв249856 0.1 99787
05:00+9ю2899100 0.3 996356
08:00+9зюз1599100 0.1 998317
11:00+10сз51197100 0.8 10011170
14:00+9сз6129499 0.6 10051090
17:00+9сз61190100 1.0 10081062
20:00+8сз51187100 0.3 1011941
26 сентября, пн
пн2623:00+7сз269517 0.3 1013234
02:00+4вюв009622 0.0 101410
05:00+4юв11960 0.0 101514
08:00+4юв22961 0.0 101652
11:00+11ююв35735 0.0 1014426
14:00+15ю466255 0.0 1011979
17:00+15ююв4772100 0.0 1010763
20:00+11ююв399499 0.0 1011260
27 сентября, вт
вт2723:00+8ююв379843 0.1 1011160
02:00+9ююв359832 0.5 1009130
05:00+8ю249753 0.8 100992
08:00+6ю1195100 0.6 101019
11:00+9зсз49671 0.7 10101306
14:00+11з6114487 0.0 10102258
17:00+11з511525 0.0 10102031
20:00+5зюз11745 0.0 101211
28 сентября, ср
ср2823:00+4ююв22825 0.0 101323
02:00+3юв249033 0.0 101378
05:00+3юв3795100 0.0 1011172
08:00+4юв3982100 0.0 1010228
11:00+11ююв486298 0.0 1007383
14:00+18ю6135494 0.0 10031169
17:00+18ююз41258100 0.0 1002819
20:00+12ю378581 0.3 1003172
29 сентября, чт
чт2923:00+12ю3795100 0.3 1004241
02:00+12зсз1296100 0.4 100668
05:00+8сз239846 0.6 100965
08:00+6с259473 0.1 1013209
11:00+8сз257034 0.1 10141072
14:00+11сз3444100 0.0 10141334
17:00+10ссз2245100 0.0 10141036
20:00+4ссв217112 0.0 101613